When you browse on this site, cookies collect data to enhance your experience and personalize the content and advertising you see.
Visit our Privacy Policy to learn more. By continuing to use the site, you agree to this use of cookies and data.
  • In Hungary
  • List of Countries
  • For 7 days
  • Water Temperature
  • Weather Map
  • News
  • Weather Widgets
  • user-avatar
    Login

    Hourly Weather Novye Karamaly

    Today, 14 October, Monday

    Time Temperature Precipitation Wind Pressure Humidity
    00:00 +8°C° 0.1 mm 5 mps 741 mmHg 86%
    01:00 +8°C° 0.1 mm 5 mps 741 mmHg 86%
    02:00 +7°C° 0.1 mm 5 mps 741 mmHg 86%
    03:00 +7°C° 0.1 mm 5 mps 741 mmHg 85%
    04:00 +6°C° 0.1 mm 5 mps 741 mmHg 84%
    05:00 +6°C° 0 mm 5 mps 741 mmHg 85%
    06:00 +6°C° 0 mm 5 mps 741 mmHg 87%
    07:00 +6°C° 0 mm 5 mps 741 mmHg 88%
    08:00 +5°C° 0 mm 6 mps 742 mmHg 84%
    09:00 +7°C° 0 mm 6 mps 742 mmHg 80%
    10:00 +6°C° 0 mm 7 mps 742 mmHg 77%
    11:00 +8°C° 0.1 mm 7 mps 743 mmHg 76%
    12:00 +8°C° 0.1 mm 7 mps 743 mmHg 76%
    13:00 +8°C° 0.1 mm 7 mps 743 mmHg 76%
    14:00 +8°C° 0.1 mm 7 mps 744 mmHg 73%
    15:00 +8°C° 0.1 mm 7 mps 744 mmHg 71%
    16:00 +9°C° 0.1 mm 7 mps 745 mmHg 68%
    17:00 +8°C° 0 mm 6 mps 745 mmHg 73%
    18:00 +8°C° 0 mm 6 mps 745 mmHg 77%
    19:00 +7°C° 0 mm 6 mps 745 mmHg 81%
    20:00 +7°C° 0.1 mm 6 mps 746 mmHg 83%
    21:00 +7°C° 0.1 mm 6 mps 746 mmHg 85%
    22:00 +6°C° 0.1 mm 5 mps 746 mmHg 87%
    23:00 +6°C° 0 mm 5 mps 746 mmHg 87%

    Tomorrow, 15 October, Tuesday

    Time Temperature Precipitation Wind Pressure Humidity
    00:00 +6°C° 0 mm 5 mps 746 mmHg 87%
    01:00 +6°C° 0 mm 5 mps 746 mmHg 87%
    02:00 +5°C° 0 mm 5 mps 746 mmHg 89%
    03:00 +5°C° 0 mm 4 mps 746 mmHg 90%
    04:00 +5°C° 0 mm 4 mps 746 mmHg 92%
    05:00 +5°C° 0.2 mm 4 mps 746 mmHg 91%
    06:00 +5°C° 0.2 mm 4 mps 746 mmHg 91%
    07:00 +5°C° 0.2 mm 5 mps 745 mmHg 90%
    08:00 +5°C° 0.6 mm 5 mps 744 mmHg 91%
    09:00 +6°C° 0.6 mm 5 mps 743 mmHg 91%
    10:00 +5°C° 0.6 mm 6 mps 742 mmHg 92%
    11:00 +7°C° 1.2 mm 6 mps 741 mmHg 92%
    12:00 +8°C° 1.2 mm 7 mps 740 mmHg 92%
    13:00 +9°C° 1.2 mm 7 mps 739 mmHg 93%
    14:00 +9°C° 0.9 mm 7 mps 739 mmHg 92%
    15:00 +10°C° 0.9 mm 6 mps 739 mmHg 91%
    16:00 +10°C° 0.9 mm 6 mps 738 mmHg 90%
    17:00 +10°C° 0.4 mm 6 mps 739 mmHg 90%
    18:00 +9°C° 0.4 mm 5 mps 740 mmHg 90%
    19:00 +8°C° 0.4 mm 5 mps 740 mmHg 90%
    20:00 +7°C° 0 mm 5 mps 741 mmHg 88%
    21:00 +5°C° 0 mm 6 mps 742 mmHg 87%
    22:00 +5°C° 0 mm 6 mps 742 mmHg 85%
    23:00 +4°C° 0.1 mm 6 mps 743 mmHg 85%

    Day after tomorrow, 16 October, Wednesday

    Time Temperature Precipitation Wind Pressure Humidity
    00:00 +5°C° 0.1 mm 5 mps 744 mmHg 86%
    01:00 +5°C° 0.1 mm 5 mps 745 mmHg 86%
    02:00 +3°C° 0.1 mm 5 mps 745 mmHg 86%
    03:00 +3°C° 0.1 mm 5 mps 746 mmHg 85%
    04:00 +3°C° 0.1 mm 5 mps 747 mmHg 84%
    05:00 +2°C° 0 mm 5 mps 747 mmHg 85%
    06:00 +2°C° 0 mm 5 mps 747 mmHg 85%
    07:00 +2°C° 0 mm 5 mps 748 mmHg 86%
    08:00 +2°C° 0.1 mm 5 mps 748 mmHg 81%
    09:00 +2°C° 0.1 mm 6 mps 749 mmHg 77%
    10:00 +3°C° 0.1 mm 6 mps 750 mmHg 72%
    11:00 +3°C° 0 mm 6 mps 750 mmHg 69%
    12:00 +3°C° 0 mm 6 mps 750 mmHg 66%
    13:00 +5°C° 0 mm 5 mps 751 mmHg 63%
    14:00 +3°C° 0 mm 6 mps 751 mmHg 65%
    15:00 +3°C° 0 mm 6 mps 752 mmHg 67%
    16:00 +3°C° 0 mm 6 mps 752 mmHg 69%
    17:00 +2°C° 0 mm 6 mps 753 mmHg 69%
    18:00 +2°C° 0 mm 5 mps 753 mmHg 69%
    19:00 +1°C° 0 mm 5 mps 754 mmHg 69%
    20:00 +1°C° 0 mm 5 mps 754 mmHg 70%
    21:00 +1°C° 0 mm 4 mps 754 mmHg 72%
    22:00 0°C° 0 mm 4 mps 755 mmHg 73%
    23:00 +1°C° 0 mm 3 mps 755 mmHg 75%

    17 October, Thursday

    Time Temperature Precipitation Wind Pressure Humidity
    00:00 +1°C° 0 mm 3 mps 755 mmHg 76%
    01:00 +2°C° 0 mm 2 mps 755 mmHg 77%
    02:00 +2°C° 0 mm 2 mps 756 mmHg 79%
    03:00 +1°C° 0 mm 2 mps 756 mmHg 80%
    04:00 +1°C° 0 mm 2 mps 756 mmHg 81%
    05:00 +2°C° 0 mm 1 mps 757 mmHg 81%
    06:00 +2°C° 0 mm 1 mps 757 mmHg 81%
    07:00 +1°C° 0 mm 0 mps 757 mmHg 81%
    08:00 +2°C° 0 mm 1 mps 757 mmHg 77%
    09:00 +2°C° 0 mm 2 mps 757 mmHg 74%
    10:00 +3°C° 0 mm 2 mps 757 mmHg 70%
    11:00 +2°C° 0 mm 3 mps 756 mmHg 68%
    12:00 +3°C° 0 mm 3 mps 756 mmHg 66%
    13:00 +4°C° 0 mm 3 mps 756 mmHg 64%
    14:00 +4°C° 0 mm 4 mps 755 mmHg 67%
    15:00 +4°C° 0 mm 4 mps 755 mmHg 69%
    16:00 +4°C° 0 mm 4 mps 755 mmHg 72%
    17:00 +3°C° 0 mm 4 mps 754 mmHg 74%
    18:00 +3°C° 0 mm 4 mps 754 mmHg 77%
    19:00 +1°C° 0 mm 5 mps 753 mmHg 79%
    20:00 +2°C° 0 mm 6 mps 752 mmHg 78%
    21:00 +2°C° 0 mm 7 mps 752 mmHg 76%
    22:00 +1°C° 0 mm 8 mps 751 mmHg 75%
    23:00 +2°C° 0 mm 8 mps 750 mmHg 72%

    18 October, Friday

    Time Temperature Precipitation Wind Pressure Humidity
    00:00 +2°C° 0 mm 8 mps 750 mmHg 69%
    01:00 +2°C° 0 mm 8 mps 749 mmHg 66%
    02:00 +2°C° 0 mm 9 mps 748 mmHg 64%
    03:00 +2°C° 0 mm 9 mps 747 mmHg 62%
    04:00 +2°C° 0 mm 9 mps 747 mmHg 61%
    05:00 +2°C° 0.2 mm 9 mps 746 mmHg 63%
    06:00 +2°C° 0.2 mm 9 mps 745 mmHg 65%
    07:00 +2°C° 0.2 mm 9 mps 744 mmHg 67%
    08:00 +2°C° 0.4 mm 9 mps 744 mmHg 71%
    09:00 +2°C° 0.4 mm 9 mps 743 mmHg 75%
    10:00 +2°C° 0.4 mm 9 mps 743 mmHg 78%
    11:00 +4°C° 0.2 mm 8 mps 743 mmHg 81%
    12:00 +4°C° 0.2 mm 8 mps 743 mmHg 83%
    13:00 +5°C° 0.2 mm 7 mps 743 mmHg 86%
    14:00 +4°C° 0.5 mm 7 mps 743 mmHg 81%
    15:00 +2°C° 0.5 mm 8 mps 743 mmHg 75%
    16:00 +1°C° 0.5 mm 8 mps 744 mmHg 70%
    17:00 0°C° 0 mm 8 mps 745 mmHg 71%
    18:00 -1°C° 0 mm 8 mps 745 mmHg 71%
    19:00 -1°C° 0 mm 7 mps 746 mmHg 72%
    20:00 -2°C° 0 mm 8 mps 746 mmHg 75%
    21:00 -2°C° 0 mm 8 mps 747 mmHg 77%
    22:00 -2°C° 0 mm 8 mps 747 mmHg 79%
    23:00 -4°C° 0.1 mm 8 mps 748 mmHg 79%

    19 October, Saturday

    Time Temperature Precipitation Wind Pressure Humidity
    00:00 -4°C° 0.1 mm 8 mps 748 mmHg 80%
    01:00 -4°C° 0.1 mm 8 mps 748 mmHg 80%
    02:00 -5°C° 0 mm 8 mps 749 mmHg 80%
    03:00 -5°C° 0 mm 8 mps 750 mmHg 79%
    04:00 -5°C° 0 mm 8 mps 750 mmHg 79%
    05:00 -5°C° 0 mm 8 mps 751 mmHg 77%
    06:00 -5°C° 0 mm 8 mps 752 mmHg 75%
    07:00 -5°C° 0 mm 8 mps 752 mmHg 73%
    08:00 -4°C° 0 mm 7 mps 753 mmHg 72%
    09:00 -4°C° 0 mm 7 mps 753 mmHg 70%
    10:00 -4°C° 0 mm 6 mps 754 mmHg 69%
    11:00 -3°C° 0 mm 6 mps 755 mmHg 65%
    12:00 -1°C° 0 mm 5 mps 755 mmHg 61%
    13:00 -1°C° 0 mm 5 mps 756 mmHg 57%
    14:00 -1°C° 0 mm 4 mps 756 mmHg 58%
    15:00 -1°C° 0 mm 4 mps 756 mmHg 58%
    16:00 0°C° 0 mm 3 mps 756 mmHg 58%
    17:00 -1°C° 0 mm 3 mps 756 mmHg 62%
    18:00 -1°C° 0 mm 2 mps 757 mmHg 66%
    19:00 -2°C° 0 mm 2 mps 757 mmHg 70%
    20:00 0°C° 0 mm 1 mps 757 mmHg 71%
    21:00 0°C° 0 mm 1 mps 758 mmHg 72%
    22:00 0°C° 0 mm 1 mps 758 mmHg 73%
    23:00 0°C° 0 mm 1 mps 758 mmHg 73%
    Show more